Tracking 30995 objects as of 5-Jul-2025
HD Live streaming from Space Station
objects crossing your sky now

COSMOS 1275 DEB

Track COSMOS 1275 DEB now!
10-day predictions


NORAD ID: 39961
Int'l Code: 1981-053PD
Perigee: 880.7 km
Apogee: 956.6 km
Inclination: 82.8 °
Period: 103.2 minutes
Semi major axis: 7289 km
RCS: 0.0155 m2 (small)
Launch date: April 25, 1981
Source: Commonwealth of Independent States (former USSR) (CIS)
Launch site: PLESETSK MISSILE AND SPACE COMPLEX (PKMTR)

Note: This is SATELLITE DEBRIS
Your satellite tracking list
STARLINK-1713
Track 1 satellite(s)




NASA's NSSDC Master Catalog

Two Line Element Set (TLE):
1 39961U 81053NX  25181.17086985  .00001062  00000-0  77109-3 0  9992
2 39961  82.7601 130.0089 0052054 227.8195 194.2823 13.94898703561390
Source of the keplerian elements: AFSPC